Location: Unnamed
(48.6007°N, 2.4808°E)
Time: 20:32:28
(UTC+02:00)

DX 1 - Pass Details

Date: 10 April 2023
Orbit: 615 x 625 km, 98.4° (Epoch: 04 June)

Event Time Altitude Azimuth Distance (km) Brightness Sun altitude
Rises 01:48:17 0° 359° (N) 2,900 ? -33.6°
Reaches altitude 10° 01:51:15 10° 337° (NNW) 1,990 ? -33.6°
Enters shadow 01:53:02 15° 313° (NW) 1,690 ? -33.6°
